This is the latest recevied weather packets stored in our database for station/object WW4HG. If no packets are shown the sender has not sent any weather packets the latest 10 day(s).
| Time | Temp. | Humidity | Pressure | Rain* | Wind** | Luminosity | Snow |
|---|---|---|---|---|---|---|---|
| 1777385170 | 16.11° C | 61% | 1025.8 hPa | 0 mm | - | 156 W/m² | - |
| 1777384865 | 16.11° C | 62% | 1025.8 hPa | 0 mm | - | 166 W/m² | - |
| 1777384563 | 16.11° C | 61% | 1025.8 hPa | 0 mm | - | 130 W/m² | - |
| 1777384257 | 16.11° C | 61% | 1025.5 hPa | 0 mm | - | 140 W/m² | - |
| 1777383953 | 16.11° C | 63% | 1025.5 hPa | 0 mm | - | 161 W/m² | - |
| 1777383649 | 16.11° C | 63% | 1025.5 hPa | 0 mm | - | 136 W/m² | - |
| 1777383346 | 16.11° C | 63% | 1025.5 hPa | 0 mm | - | 133 W/m² | - |
| 1777383042 | 16.11° C | 63% | 1025.5 hPa | 0 mm | - | 118 W/m² | - |
| 1777382738 | 16.11° C | 61% | 1025.5 hPa | 0 mm | - | 107 W/m² | - |
| 1777382428 | 16.11° C | 60% | 1025.1 hPa | 0 mm | - | 125 W/m² | - |
| 1777382125 | 15.56° C | 60% | 1024.8 hPa | 0 mm | - | 198 W/m² | - |
| 1777381822 | 15.56° C | 62% | 1025.1 hPa | 0 mm | - | 360 W/m² | - |
| 1777381521 | 15° C | 66% | 1024.5 hPa | 0 mm | - | 349 W/m² | - |
| 1777381216 | 14.44° C | 69% | 1024.5 hPa | 0 mm | - | 199 W/m² | - |
| 1777380915 | 13.89° C | 72% | 1024.5 hPa | 0 mm | - | 140 W/m² | - |
| 1777380611 | 13.33° C | 75% | 1024.5 hPa | 0 mm | - | 262 W/m² | - |
| 1777380307 | 12.78° C | 79% | 1024.5 hPa | 0 mm | - | 132 W/m² | - |
| 1777380003 | 12.78° C | 82% | 1024.1 hPa | 0 mm | - | 150 W/m² | - |
| 1777379699 | 12.22° C | 84% | 1024.5 hPa | 0 mm | - | 264 W/m² | - |
| 1777379395 | 11.67° C | 85% | 1024.5 hPa | 0 mm | - | 179 W/m² | - |
| 1777379090 | 11.67° C | 85% | 1024.5 hPa | 0 mm | - | 101 W/m² | - |
| 1777378785 | 11.67° C | 85% | 1024.5 hPa | 0 mm | - | 96 W/m² | - |
| 1777378482 | 11.67° C | 85% | 1023.8 hPa | 0 mm | - | 76 W/m² | - |
| 1777378172 | 11.67° C | 85% | 1024.1 hPa | 0 mm | - | 67 W/m² | - |
| 1777377871 | 11.11° C | 85% | 1023.4 hPa | 0 mm | - | 54 W/m² | - |
* Rain latest hour (hover to see other rain measurements)
** Current wind speed in m/s (hover to see current wind gust speed)